[Iaude] MPEC T49: 2016 TF10 [a=1.74,e=0.40,i=5.4,H=25.7]

mpec at si.edu mpec at si.edu
Thu Oct 6 12:54:38 EDT 2016


M.P.E.C. 2016-T49                                Issued 2016 Oct. 6, 16:49 UT
 
     The Minor Planet Electronic Circulars contain information on unusual
         minor planets and routine data on comets.  They are published
    on behalf of Division F of the International Astronomical Union by the
          Minor Planet Center, Smithsonian Astrophysical Observatory,
                          Cambridge, MA 02138, U.S.A.

             Prepared using the Tamkin Foundation Computer Network

                              MPC at CFA.HARVARD.EDU
            URL http://www.minorplanetcenter.net/    ISSN 1523-6714


                                   2016 TF10
 
Observations:
     K16T10F* C2016 10 04.30442 00 20 09.80 -02 23 17.5          19.7 VqET049G96
     K16T10F  C2016 10 04.31111 00 20 12.14 -02 22 07.6          20.1 VqET049G96
     K16T10F  C2016 10 04.31771 00 20 14.39 -02 20 58.1          20.2 VqET049G96
     K16T10F  C2016 10 04.32429 00 20 16.62 -02 19 50.3          19.6 VqET049G96
     K16T10F  C2016 10 04.42691 00 20 52.51 -02 02 02.4          20.0 VqET049G96
     K16T10F  C2016 10 04.43442 00 20 55.27 -02 00 44.9          20.2 VqET049G96
     K16T10F  C2016 10 04.44194 00 20 58.00 -01 59 26.9          20.0 VqET049G96
     K16T10F KC2016 10 04.86042 00 23 51.29 -00 48 43.9          19.5 RoET049K51
     K16T10F KC2016 10 04.86970 00 23 54.43 -00 47 10.5          18.9 RoET049K51
     K16T10F KC2016 10 04.87376 00 23 56.12 -00 46 29.5                qET049587
     K16T10F KC2016 10 04.87438 00 23 56.08 -00 46 23.2          20.3 RoET049K51
     K16T10F KC2016 10 04.87594 00 23 56.88 -00 46 07.8          20.4 RqET049587
     K16T10F KC2016 10 04.89341 00 24 02.88 -00 43 10.9                qET049587
     K16T10F KC2016 10 04.91957 00 24 11.80 -00 38 48.4          19.7 RqET049204
     K16T10F KC2016 10 04.92975 00 24 15.24 -00 37 06.5                qET049204
     K16T10F KC2016 10 04.94071 00 24 19.02 -00 35 16.8                qET049204
     K16T10F KC2016 10 04.96522 00 24 26.95 -00 31 07.9          20.2 RqET049104
     K16T10F KC2016 10 04.96737 00 24 27.67 -00 30 46.3          20.2 RqET049104
     K16T10F KC2016 10 04.96913 00 24 28.18 -00 30 28.5                qET049104
     K16T10F KC2016 10 05.15351500 25 42.20 +00 00 14.3          20.2 VuET049H21
     K16T10F KC2016 10 05.15564900 25 42.91 +00 00 35.5          20.2 VuET049H21
     K16T10F KC2016 10 05.15892400 25 44.00 +00 01 07.9          20.2 VuET049H21
     K16T10F  C2016 10 05.20304 00 26 01.83 +00 08 40.5          19.9 RoET049926
     K16T10F  C2016 10 05.20560 00 26 02.65 +00 09 06.0          20.1 RoET049926
     K16T10F  C2016 10 05.20815 00 26 03.50 +00 09 31.0          20.0 RoET049926
     K16T10F KC2016 10 05.22764 00 26 09.90 +00 12 41.7          19.1 RoET049291
     K16T10F KC2016 10 05.22911 00 26 10.38 +00 12 56.2          19.2 RoET049291
     K16T10F KC2016 10 05.23058 00 26 10.86 +00 13 10.6          19.4 RoET049291
     K16T10F  C2016 10 05.31846 00 26 38.93 +00 27 31.7          20.5 VqET049G96
     K16T10F  C2016 10 05.32030 00 26 39.53 +00 27 50.0          20.2 VqET049G96
     K16T10F  C2016 10 05.32210 00 26 40.17 +00 28 07.7                qET049G96
     K16T10F  C2016 10 05.32401 00 26 40.71 +00 28 25.7          20.1 VqET049G96
     K16T10F  C2016 10 06.34294 00 32 46.90 +03 08 52.0          20.4 VqET049G96
     K16T10F  C2016 10 06.34541 00 32 47.62 +03 09 14.7          20.6 VqET049G96
     K16T10F  C2016 10 06.34686 00 32 48.08 +03 09 27.6          20.5 VqET049G96
     K16T10F  C2016 10 06.34988 00 32 49.01 +03 09 54.8          20.5 VqET049G96
     K16T10F  C2016 10 06.37617 00 32 56.95 +03 13 54.1          20.6 VqET049G96
     K16T10F  C2016 10 06.37916 00 32 57.87 +03 14 20.7          19.9 VqET049G96
     K16T10F  C2016 10 06.38101 00 32 58.41 +03 14 37.6          20.2 VqET049G96
 
Observer details:
104 San Marcello Pistoiese.  Observers P. Bacci, M. Maestripieri.  Measurers
    P. Bacci, L. Tesi, G. Fagioli.  0.60-m f/4 reflector + CCD.
204 Schiaparelli Observatory.  Observer L. Buzzi.  0.60-m f/4.64 reflector
    + CCD.
291 LPL/Spacewatch II.  Observer A. F. Tubbiolo.  1.8-m f/2.7 reflector + CCD.
587 Sormano.  Observers P. Ghezzi, F. Manca, P. Sicoli, A. Testa.  Measurer
    P. Sicoli.  0.5-m f/6.8 reflector + CCD.
926 Tenagra II Observatory.  Observers M. Schwartz, P. R. Holvorcem.  Measurer
    M. Schwartz.  0.81-m f/7 Ritchey-Chretien + CCD.
G96 Mt. Lemmon Survey.  Observers A. D. Grauer, R. G. Matheny.  Measurers
    E. J. Christensen, D. C. Fuls, A. R. Gibbs, A. D. Grauer, J. A. Johnson,
    R. A. Kowalski, S. M. Larson, G. J. Leonard, R. G. Matheny, R. L. Seaman,
    F. C. Shelly.  1.5-m reflector + 10K CCD.
H21 Astronomical Research Observatory, Westfield.  Observer R. Holmes.
    Measurers S. Foglia, L. Buzzi, T. Linder, R. Holmes.  0.61-m f/4.5
    astrograph + CCD.
K51 Osservatorio del Celado, Castello Tesino.  Observer R. Broccato.  Measurer
    M. Campestrin.  0.80-m f/4 reflector + CCD.
 
Orbital elements:
2016 TF10                                                Earth MOID = 0.0455 AU
Epoch 2016 July 31.0 TT = JDT 2457600.5                 MPC
M 339.21496              (2000.0)            P               Q
n   0.42908950     Peri.  339.21753     +0.99108392     +0.13146356
a   1.7408878      Node    13.28368     -0.10500623     +0.87082265
e   0.4019533      Incl.    5.41395     -0.08201432     +0.47369319
P   2.30           H   25.7           G   0.15           U   7
Residuals in seconds of arc
161004 G96  0.4-  0.4-    161004 204  0.1-  0.4+    161005 291  0.2-  0.0
161004 G96  0.3+  0.3-    161004 204  0.1-  0.1+    161005 291  0.1-  0.1-
161004 G96  0.2+  0.4+    161004 204  1.2+  0.1-    161005 G96  0.3-  0.1-
161004 G96  0.3-  0.4-    161004 104  0.4+  0.0     161005 G96  0.1-  0.2+
161004 G96  0.6-  0.6+    161004 104  0.4+  0.0     161005 G96  0.9+  0.3+
161004 G96  0.2+  0.2+    161004 104  0.8-  0.2+    161005 G96  0.2-  0.4-
161004 G96  0.2+  0.3+    161005 H21  0.0   0.3-    161006 G96  0.0   0.1+
161004 K51  0.2+  0.0     161005 H21  0.0   0.2-    161006 G96  0.4-  0.3+
161004 K51  0.6-  0.1-    161005 H21  0.1+  0.2-    161006 G96  0.0   0.0
161004 587  0.3-  0.2-    161005 926  0.4+  0.1-    161006 G96  0.3+  0.2-
161004 K51  0.0   0.1+    161005 926  0.1+  0.2+    161006 G96  0.0   0.3+
161004 587  0.1-  0.5-    161005 926  0.3+  0.0     161006 G96  0.1+  0.2-
161004 587  0.2+  0.7+    161005 291  0.2-  0.1-    161006 G96  0.2-  0.1-

Ephemeris:
2016 TF10                a,e,i = 1.74, 0.40, 5                   q = 1.0411
Date    TT    R. A. (2000) Decl.     Delta      r     Elong.  Phase     V
2016 09 06    19 25 59.4 -58 46 23   0.09158 1.0483   113.8    61.6    22.8
...
2016 09 21    22 11 15.5 -43 59 31   0.05625 1.0418   131.1    46.5    21.3
...
2016 09 29    23 38 43.8 -19 36 32   0.05102 1.0484   155.5    23.3    20.4
...
2016 10 05    00 24 40.6 -00 23 43   0.05817 1.0578   173.0     6.6    20.1
2016 10 06    00 30 48.5 +02 17 14   0.06019 1.0597   174.9     4.8    20.1
2016 10 07    00 36 33.7 +04 47 18   0.06241 1.0617   176.3     3.5    20.1
...
2016 10 13    01 04 20.3 +16 15 36   0.07903 1.0759   171.2     8.1    20.9
...
2016 10 21    01 28 25.1 +24 41 36   0.1074  1.0998   165.6    13.0    21.8
...
2016 11 05    01 53 21.2 +30 32 48   0.1740  1.1578   161.5    15.8    23.1

A. U. Tomatic                (C) Copyright 2016 MPC           M.P.E.C. 2016-T49




More information about the Iaude mailing list